QZS-2 (QZSS/PRN 194)

Last updated on Mon Sep 07 2026 00:03:27 GMT+0000 (Coordinated Universal Time)

1 42738U 17028A 26248.83424814 -.00000131 00000+0 00000+0 0 9992 2 42738 39.3126 241.9653 0751552 270.3247 274.7874 1.00263221 8431
UTC large
Height (km)
Speed (km/s)
/
Latitude / Longitude
Inclination (degrees)
Orbital Period (minutes)
Azimuth
Elevation
Range (km)
Doppler Factor

Next 0 passes for location: London (51.5072 / 0.1276)

No passes found over London.
QZS-2 (QZSS/PRN 194)